Torna al catalogo

METEOR 2-8 DEB

AttivoPO
NORAD 36321·DEBRIS·🇷🇺 Russia

Lanciato Mar 25, 1982 da Plesetsk Cosmodrome

Loading…

Prossimi Passaggi (prossime 24 ore)

TLE

AggiornatoSource: Space-Track

Epoca: Sep 14, 2026, 07:52 UTC

1 36321U 82025F   26257.32782645  .00003768  00000-0  13674-2 0  9998
2 36321  82.5175 118.6291 0001333 269.1535  90.9500 14.33149756734015

Traccia METEOR 2-8 DEB in tempo reale con AllMySat

Download on the App Store